Retour au catalogue

STARLINK-36624

ActifCommunicationsVLEO
NORAD 67636·PAYLOAD·🇺🇸 United States

Lancé Jan 30, 2026 depuis Cape Canaveral Space Force Station

Loading…

Prochains Passages (prochaines 24 heures)

TLE

FraisSource: CelesTrak SupGP

Époque: Sep 15, 2026, 03:59 UTC

1 67636C 26020V   26258.16645833  .00058560  00000+0  21211-2 0  2587
2 67636  43.0021 149.3473 0001336 273.8433 162.9995 15.27547824    11

Suivez STARLINK-36624 en temps réel avec AllMySat

Download on the App Store